Ono, PA

1:52 PM EST on February 09, 2016 (GMT -0500)
Muir Army Air Field

Weather History for KMUI - February, 2013

Change the Weather History Date:

Friday, February 15, 2013

  Actual Average (KMDT) Record (KMDT)
Temperature  
Mean Temperature 38 °F 33 °F  
Max Temperature 50 °F 41 °F 74 °F (1954)
Min Temperature 26 °F 25 °F -2 °F (1899)
Degree Days  
Heating Degree Days 27 32  
Month to date heating degree days 505  
Since 1 July heating degree days 3594  
Cooling Degree Days 0 0  
Month to date cooling degree days 0  
Year to date cooling degree days 0  
Moisture  
Dew Point 33 °F    
Average Humidity 89    
Maximum Humidity 100    
Minimum Humidity 42    
Precipitation  
Precipitation 0.15 in 0.08 in 1.12 in (1908)
Month to date precipitation 1.24  
Year to date precipitation 4.12  
Snow  
Snow 0.00 in 0.40 in 6.80 in (1958)
Month to date snowfall 5.9  
Since 1 July snowfall 20.4  
Snow Depth -    
Sea Level Pressure  
Sea Level Pressure 30.00 in    
Wind  
Wind Speed 3 mph (West)    
Max Wind Speed 16 mph    
Max Gust Speed -    
Visibility 9 miles    
Events Rain    
T = Trace of Precipitation, MM = Missing Value Source: NWS Daily Summary

Daily Weather History Graph

Daily Weather History Graph

Search for Another Location

Airport or City:

Trip Planner

Search our weather history database for the weather conditions in past years. The results will help you decide how hot, cold, wet, or windy it might be!

Date:

Astronomy

Feb. 15, 2013 Rise Set
Actual Time 6:59 AM EST 5:41 PM EST
Civil Twilight 6:31 AM EST 6:09 PM EST
Nautical Twilight 5:59 AM EST 6:41 PM EST
Astronomical Twilight 5:28 AM EST 7:13 PM EST
Moon 9:33 AM EST (2/15) 11:42 PM EST (2/15)
Length of Visible Light 11h 38m
Length of Day
10h 42m
Waxing Crescent, 30% of the Moon is Illuminated
Feb 15
Waxing Crescent
Feb 17
First Quarter
Feb 25
Full
Mar 4
Last Quarter
Mar 11
New

Hourly Weather History & Observations

Time (EST) Temp. Windchill Dew Point Humidity Pressure Visibility Wind Dir Wind Speed Gust Speed Precip Events Conditions
12:55 AM 30.7 °F - 30.4 °F 99% 30.00 in 9.0 mi Calm Calm - N/A   Overcast
1:55 AM 30.4 °F - 30.2 °F 99% 29.99 in 9.0 mi Calm Calm - N/A   Overcast
2:55 AM 30.4 °F - 30.0 °F 99% 29.98 in 8.0 mi Calm Calm - N/A   Clear
3:55 AM 30.9 °F - 30.6 °F 99% 29.98 in 9.0 mi Calm Calm - N/A   Clear
4:55 AM 28.6 °F - 28.4 °F 99% 29.99 in 8.0 mi Calm Calm - N/A   Partly Cloudy
5:55 AM 28.0 °F - 27.9 °F 99% 29.99 in 9.0 mi Calm Calm - N/A   Partly Cloudy
6:55 AM 26.8 °F - 26.6 °F 99% 30.01 in 7.0 mi Calm Calm - N/A   Clear
7:55 AM 28.6 °F - 28.2 °F 99% 30.03 in 5.0 mi Calm Calm - N/A   Partly Cloudy
8:55 AM 34.7 °F - 33.3 °F 94% 30.03 in 8.0 mi Calm Calm - N/A   Clear
9:55 AM 37.6 °F - 32.7 °F 83% 30.03 in 10.0 mi Calm Calm - N/A   Clear
10:55 AM 43.9 °F 39.9 °F 32.5 °F 64% 30.01 in 10.0 mi SSW 6.9 mph - N/A   Clear
11:55 AM 49.3 °F - 31.6 °F 51% 29.99 in 10.0 mi SW 16.1 mph - N/A   Partly Cloudy
12:55 PM 49.3 °F - 30.4 °F 48% 29.97 in 10.0 mi West 12.7 mph - N/A   Partly Cloudy
1:55 PM 50.2 °F - 30.7 °F 47% 29.96 in 10.0 mi SW 9.2 mph - N/A   Partly Cloudy
2:55 PM 48.7 °F - 27.9 °F 44% 29.96 in 10.0 mi WNW 4.6 mph - N/A   Mostly Cloudy
3:55 PM 48.4 °F - 26.1 °F 42% 29.95 in 10.0 mi WSW 6.9 mph - N/A   Overcast
4:55 PM 46.6 °F - 25.0 °F 43% 29.96 in 10.0 mi NNW 4.6 mph - N/A   Mostly Cloudy
5:55 PM 44.8 °F 42.4 °F 26.4 °F 49% 29.97 in 10.0 mi West 4.6 mph - N/A   Clear
6:29 PM 42.8 °F 37.0 °F 30.2 °F 61% 29.98 in 10.0 mi NNW 10.4 mph - N/A   Light Drizzle
6:46 PM 41.0 °F 35.2 °F 35.6 °F 81% 29.99 in 9.0 mi NW 9.2 mph - N/A   Light Drizzle
6:55 PM 39.2 °F 34.2 °F 36.7 °F 91% 29.99 in 9.0 mi WNW 6.9 mph - 0.01 in   Light Drizzle
7:11 PM 39.2 °F 35.0 °F 37.4 °F 93% 29.99 in 10.0 mi NW 5.8 mph - N/A   Mostly Cloudy
7:17 PM 39.2 °F 33.6 °F 37.4 °F 93% 29.99 in 9.0 mi NW 8.1 mph - N/A Rain Light Rain
7:46 PM 37.4 °F 32.1 °F 37.4 °F 100% 30.00 in 10.0 mi NW 6.9 mph - N/A   Mostly Cloudy
7:55 PM 37.2 °F 31.9 °F 36.9 °F 99% 30.00 in 10.0 mi West 6.9 mph - 0.05 in   Overcast
7:56 PM 37.4 °F 32.1 °F 37.4 °F 100% 30.00 in 10.0 mi West 6.9 mph - N/A   Light Drizzle
8:15 PM 37.4 °F 33.8 °F 35.6 °F 93% 30.00 in 10.0 mi Variable 4.6 mph - N/A   Overcast
8:55 PM 36.5 °F 32.7 °F 36.3 °F 99% 30.01 in 9.0 mi SW 4.6 mph - 0.03 in   Overcast
8:57 PM 35.6 °F 32.8 °F 35.6 °F 100% 30.01 in 8.0 mi WSW 3.5 mph - N/A   Overcast
8:58 PM 35.6 °F 32.8 °F 35.6 °F 100% 30.01 in 8.0 mi SW 3.5 mph - N/A   Overcast
9:08 PM 35.6 °F 31.7 °F 35.6 °F 100% 30.01 in 9.0 mi West 4.6 mph - N/A   Overcast
9:17 PM 35.6 °F 31.7 °F 35.6 °F 100% 30.01 in 9.0 mi West 4.6 mph - N/A   Overcast
9:27 PM 35.6 °F 31.7 °F 35.6 °F 100% 30.01 in 10.0 mi WSW 4.6 mph - N/A   Overcast
9:41 PM 33.8 °F 28.6 °F 33.8 °F 100% 30.01 in 10.0 mi WSW 5.8 mph - N/A   Overcast
9:43 PM 33.8 °F 28.6 °F 33.8 °F 100% 30.02 in 10.0 mi WSW 5.8 mph - N/A   Overcast
9:44 PM 33.8 °F 28.6 °F 33.8 °F 100% 30.02 in 10.0 mi WSW 5.8 mph - N/A Rain Light Freezing Rain
9:47 PM 33.8 °F 28.6 °F 33.8 °F 100% 30.02 in 9.0 mi WSW 5.8 mph - N/A Rain Light Freezing Rain
9:55 PM 34.0 °F 28.8 °F 34.0 °F 100% 30.01 in 7.0 mi West 5.8 mph - 0.05 in Rain Light Freezing Rain
9:56 PM 33.8 °F 29.6 °F 33.8 °F 100% 30.01 in 7.0 mi West 4.6 mph - N/A Rain Light Freezing Rain
10:00 PM 33.8 °F 29.6 °F 33.8 °F 100% 30.01 in 8.0 mi West 4.6 mph - N/A   Overcast
10:03 PM 33.8 °F 30.8 °F 33.8 °F 100% 30.01 in 9.0 mi West 3.5 mph - N/A   Overcast
10:13 PM 33.8 °F 30.8 °F 33.8 °F 100% 30.02 in 8.0 mi West 3.5 mph - N/A   Overcast
10:24 PM 33.8 °F 29.6 °F 33.8 °F 100% 30.01 in 10.0 mi SSW 4.6 mph - N/A   Mostly Cloudy
10:28 PM 33.8 °F 30.8 °F 33.8 °F 100% 30.01 in 10.0 mi SSW 3.5 mph - N/A   Mostly Cloudy
10:50 PM 33.8 °F - 33.8 °F 100% 30.01 in 10.0 mi Calm Calm - N/A   Partly Cloudy
10:55 PM 33.4 °F - 33.4 °F 100% 30.01 in 9.0 mi Calm Calm - 0.01 in   Scattered Clouds
11:19 PM 33.8 °F - 33.8 °F 100% 30.01 in 7.0 mi Calm Calm - N/A   Mostly Cloudy
11:31 PM 33.8 °F 30.8 °F 33.8 °F 100% 30.01 in 6.0 mi SSW 3.5 mph - N/A   Mostly Cloudy
11:43 PM 33.8 °F - 33.8 °F 100% 30.00 in 4.0 mi Calm Calm - N/A   Mostly Cloudy
11:55 PM 33.4 °F 30.4 °F 33.4 °F 100% 30.01 in 4.0 mi SSW 3.5 mph - N/A   Mostly Cloudy